Salida, CO

11:29 AM MDT on August 18, 2017 (GMT -0600)
Salida

Weather History for KANK - February, 2013

Change the Weather History Date:

Thursday, February 14, 2013

  Actual Average (KGUC) Record (KGUC)
Temperature  
Mean Temperature 29 °F -  
Max Temperature 41 °F 28 °F 42 °F (2003)
Min Temperature 17 °F 3 °F -25 °F (2004)
Degree Days  
Heating Degree Days 36    
Moisture  
Dew Point 11 °F    
Average Humidity 52    
Maximum Humidity 82    
Minimum Humidity 21    
Precipitation  
Precipitation 0.00 in - - ()
Sea Level Pressure  
Sea Level Pressure 30.16 in    
Wind  
Wind Speed 6 mph (West)    
Max Wind Speed 23 mph    
Max Gust Speed 29 mph    
Visibility 10 miles    
Events      
Averages and records for this station are not official NWS values.
T = Trace of Precipitation, MM = Missing Value Source: NWS Daily Summary

Daily Weather History Graph

Daily Weather History Graph

Search for Another Location

Airport or City:

Trip Planner

Search our weather history database for the weather conditions in past years. The results will help you decide how hot, cold, wet, or windy it might be!

Date:

Astronomy

Feb. 14, 2013 Rise Set
Actual Time 6:55 AM MST 5:41 PM MST
Civil Twilight 6:28 AM MST 6:08 PM MST
Nautical Twilight 5:57 AM MST 6:39 PM MST
Astronomical Twilight 5:26 AM MST 7:10 PM MST
Moon 9:03 AM MST (2/14) 10:42 PM MST (2/14)
Length of Visible Light 11h 40m
Length of Day
10h 45m
Waxing Crescent, 22% of the Moon is Illuminated
Feb 14
Waxing Crescent
Feb 17
First Quarter
Feb 25
Full
Mar 4
Last Quarter
Mar 11
New

Hourly Weather History & Observations

Time (MST) Temp. Windchill Dew Point Humidity Pressure Visibility Wind Dir Wind Speed Gust Speed Precip Events Conditions
12:15 AM 28.8 °F 23.7 °F 10.0 °F 46% 30.12 in 10.0 mi North 4.6 mph - N/A   Clear
12:35 AM 27.1 °F 19.7 °F 10.4 °F 49% 30.12 in 10.0 mi West 6.9 mph - N/A   Clear
12:55 AM 31.6 °F 24.4 °F 8.1 °F 37% 30.11 in 10.0 mi North 8.1 mph - N/A   Clear
1:15 AM 23.9 °F - 10.4 °F 56% 30.11 in 10.0 mi Calm Calm - N/A   Clear
1:35 AM 23.9 °F 18.0 °F 10.0 °F 56% 30.11 in 10.0 mi SSW 4.6 mph - N/A   Clear
1:55 AM 22.6 °F 18.0 °F 9.9 °F 58% 30.11 in 10.0 mi NNW 3.5 mph - N/A   Clear
2:15 AM 22.8 °F 14.5 °F 10.2 °F 59% 30.11 in 10.0 mi NW 6.9 mph - N/A   Clear
2:35 AM 24.8 °F 19.1 °F 9.7 °F 53% 30.11 in 10.0 mi NW 4.6 mph - N/A   Clear
2:55 AM 23.2 °F 17.2 °F 10.0 °F 57% 30.10 in 10.0 mi WSW 4.6 mph - N/A   Clear
3:15 AM 21.2 °F - 9.5 °F 61% 30.09 in 10.0 mi Calm Calm - N/A   Clear
3:35 AM 21.4 °F 13.8 °F 9.3 °F 60% 30.09 in 10.0 mi NNW 5.8 mph - N/A   Clear
3:55 AM 21.9 °F 15.7 °F 9.0 °F 58% 30.09 in 10.0 mi NNW 4.6 mph - N/A   Clear
4:15 AM 23.5 °F 17.6 °F 9.0 °F 54% 30.09 in 10.0 mi North 4.6 mph - N/A   Clear
4:35 AM 19.8 °F - 8.6 °F 62% 30.09 in 10.0 mi Calm Calm - N/A   Clear
4:55 AM 19.9 °F - 8.4 °F 61% 30.09 in 10.0 mi Calm Calm - N/A   Clear
5:15 AM 17.8 °F 10.9 °F 8.6 °F 67% 30.10 in 10.0 mi SSW 4.6 mph - N/A   Clear
5:35 AM 17.6 °F - 8.6 °F 68% 30.11 in 10.0 mi Calm Calm - N/A   Clear
5:55 AM 18.1 °F - 8.6 °F 66% 30.11 in 10.0 mi Calm Calm - N/A   Clear
6:15 AM 17.6 °F - 8.6 °F 68% 30.11 in 10.0 mi Calm Calm - N/A   Clear
6:35 AM 17.1 °F - 8.8 °F 70% 30.12 in 10.0 mi Calm Calm - N/A   Clear
6:55 AM 17.1 °F 11.7 °F 8.4 °F 69% 30.13 in 10.0 mi WNW 3.5 mph - N/A   Clear
7:15 AM 17.1 °F - 8.8 °F 70% 30.13 in 10.0 mi Calm Calm - N/A   Scattered Clouds
7:35 AM 18.5 °F 11.7 °F 9.5 °F 68% 30.13 in 10.0 mi NNW 4.6 mph - N/A   Scattered Clouds
7:55 AM 19.9 °F - 10.2 °F 66% 30.14 in 10.0 mi Calm Calm - N/A   Clear
8:15 AM 19.4 °F - 10.0 °F 67% 30.14 in 10.0 mi Calm Calm - N/A   Clear
8:35 AM 23.9 °F - 11.1 °F 58% 30.14 in 10.0 mi Calm Calm - N/A   Clear
8:55 AM 25.0 °F 18.1 °F 10.8 °F 55% 30.15 in 10.0 mi NNW 5.8 mph - N/A   Clear
9:15 AM 27.7 °F 19.6 °F 11.8 °F 51% 30.15 in 10.0 mi NNW 8.1 mph - N/A   Scattered Clouds
9:35 AM 30.7 °F 27.3 °F 12.2 °F 46% 30.16 in 10.0 mi WNW 3.5 mph - N/A   Mostly Cloudy
9:55 AM 32.9 °F - 12.6 °F 43% 30.15 in 10.0 mi Calm Calm - N/A   Scattered Clouds
10:15 AM 34.0 °F - 12.7 °F 42% 30.15 in 10.0 mi Calm Calm - N/A   Clear
10:35 AM 35.1 °F - 12.4 °F 39% 30.15 in 10.0 mi Calm Calm - N/A   Clear
10:55 AM 36.9 °F 34.3 °F 11.3 °F 35% 30.15 in 10.0 mi SW 3.5 mph - N/A   Clear
11:35 AM 38.1 °F 34.6 °F 9.7 °F 31% 30.14 in 10.0 mi West 4.6 mph - N/A   Scattered Clouds
11:55 AM 37.4 °F 34.9 °F 8.8 °F 31% 30.15 in 10.0 mi NW 3.5 mph - N/A   Overcast
12:15 PM 39.9 °F 36.7 °F 9.9 °F 29% 30.14 in 10.0 mi NNE 4.6 mph - N/A   Overcast
12:35 PM 39.4 °F - 8.4 °F 28% 30.13 in 10.0 mi Calm Calm - N/A   Overcast
12:55 PM 38.5 °F 35.0 °F 7.9 °F 28% 30.13 in 10.0 mi WSW 4.6 mph - N/A   Overcast
1:15 PM 38.5 °F - 7.5 °F 28% 30.13 in 10.0 mi Calm Calm - N/A   Overcast
1:35 PM 39.9 °F 37.8 °F 7.0 °F 26% 30.12 in 10.0 mi West 3.5 mph - N/A   Mostly Cloudy
1:55 PM 39.2 °F - 4.3 °F 23% 30.12 in 10.0 mi Calm Calm - N/A   Scattered Clouds
2:15 PM 39.4 °F 33.8 °F 5.7 °F 25% 30.12 in 10.0 mi West 8.1 mph - N/A   Scattered Clouds
2:35 PM 40.1 °F - 4.5 °F 23% 30.12 in 10.0 mi Calm Calm - N/A   Scattered Clouds
2:55 PM 40.3 °F 32.6 °F 3.6 °F 22% 30.12 in 10.0 mi WSW 13.8 mph 20.7 mph N/A   Mostly Cloudy
3:15 PM 41.5 °F 31.9 °F 3.4 °F 21% 30.13 in 10.0 mi West 23.0 mph 28.8 mph N/A   Mostly Cloudy
3:35 PM 40.1 °F 30.5 °F 7.7 °F 26% 30.14 in 10.0 mi West 20.7 mph 28.8 mph N/A   Mostly Cloudy
3:55 PM 39.7 °F 30.6 °F 8.6 °F 28% 30.15 in 10.0 mi West 18.4 mph 26.5 mph N/A   Overcast
4:15 PM 37.4 °F 26.4 °F 10.8 °F 33% 30.15 in 10.0 mi West 23.0 mph 28.8 mph N/A   Mostly Cloudy
4:35 PM 35.8 °F 24.8 °F 12.0 °F 38% 30.16 in 10.0 mi West 20.7 mph 27.6 mph N/A   Mostly Cloudy
4:55 PM 34.3 °F 23.2 °F 12.2 °F 40% 30.17 in 10.0 mi West 19.6 mph 24.2 mph N/A   Clear
5:15 PM 33.3 °F 22.5 °F 12.0 °F 41% 30.17 in 10.0 mi West 17.3 mph 20.7 mph N/A   Clear
5:35 PM 32.4 °F 20.6 °F 12.9 °F 45% 30.18 in 10.0 mi West 19.6 mph 25.3 mph N/A   Clear
5:55 PM 32.0 °F 20.8 °F 13.5 °F 46% 30.19 in 10.0 mi West 17.3 mph - N/A   Clear
6:15 PM 31.8 °F 20.6 °F 13.8 °F 47% 30.19 in 10.0 mi West 17.3 mph 23.0 mph N/A   Clear
6:35 PM 31.8 °F 21.8 °F 12.6 °F 45% 30.20 in 10.0 mi West 13.8 mph - N/A   Clear
6:55 PM 30.9 °F 21.7 °F 12.2 °F 46% 30.21 in 10.0 mi West 11.5 mph - N/A   Clear
7:15 PM 30.6 °F 21.2 °F 11.3 °F 45% 30.22 in 10.0 mi West 11.5 mph 20.7 mph N/A   Clear
7:35 PM 29.3 °F 22.3 °F 10.4 °F 45% 30.22 in 10.0 mi West 6.9 mph - N/A   Clear
7:55 PM 29.7 °F - 9.5 °F 43% 30.23 in 10.0 mi Calm Calm - N/A   Clear
8:15 PM 26.4 °F 22.4 °F 17.1 °F 68% 30.23 in 10.0 mi SE 3.5 mph - N/A   Clear
8:35 PM 24.8 °F 14.6 °F 16.9 °F 72% 30.24 in 10.0 mi SE 10.4 mph 17.3 mph N/A   Clear
8:55 PM 23.9 °F 12.9 °F 16.7 °F 74% 30.24 in 10.0 mi ESE 11.5 mph 18.4 mph N/A   Clear
9:15 PM 23.4 °F 10.6 °F 16.5 °F 75% 30.24 in 10.0 mi ESE 15.0 mph 21.9 mph N/A   Clear
9:35 PM 22.8 °F 9.4 °F 16.2 °F 76% 30.25 in 10.0 mi ESE 16.1 mph 21.9 mph N/A   Clear
9:55 PM 22.1 °F 14.7 °F 15.8 °F 77% 30.25 in 10.0 mi SSE 5.8 mph 18.4 mph N/A   Clear
10:15 PM 21.2 °F 12.6 °F 15.6 °F 79% 30.25 in 10.0 mi SSE 6.9 mph 16.1 mph N/A   Clear
10:35 PM 20.8 °F 11.2 °F 15.4 °F 80% 30.25 in 10.0 mi SE 8.1 mph - N/A   Clear
10:55 PM 20.3 °F 8.3 °F 15.1 °F 80% 30.26 in 10.0 mi ESE 11.5 mph 17.3 mph N/A   Clear
11:15 PM 20.3 °F 8.3 °F 14.9 °F 80% 30.27 in 10.0 mi ESE 11.5 mph 19.6 mph N/A   Clear
11:35 PM 19.9 °F 9.3 °F 14.9 °F 81% 30.27 in 10.0 mi ESE 9.2 mph 16.1 mph N/A   Clear
11:55 PM 19.4 °F 12.8 °F 14.7 °F 82% 30.27 in 10.0 mi East 4.6 mph - N/A   Clear